Theta_e
321 322 323 323 322 318 315 314 314 313 313 312 312 312 312 310 309 309 308 308 307 306 306 306 306 306 306 306 306 306 306 306 306 306 306 306 306 306 307 307 308 308 308 308 308 309 309 309 309 309 308 307 306 306 306 306 307 307 307 307 306 306 306 305 305 304 305 305 306
318 320 321 320 317 314 313 312 312 311 311 310 310 310 309 308 307 306 305 305 305 305 305 305 305 305 305 305 305 305 305 305 305 305 305 305 305 305 306 306 306 307 307 307 307 307 307 307 307 306 306 305 305 305 305 305 305 305 305 305 305 305 305 304 304 304 304 304 304
318 318 318 316 313 312 311 310 309 308 308 308 308 308 307 306 305 304 304 304 304 304 304 304 304 304 304 304 304 304 304 304 304 304 303 303 304 304 304 305 305 305 305 306 306 305 305 305 305 305 304 304 304 304 304 304 304 304 303 303 304 304 304 304 303 303 303 303 303
316 316 314 312 311 310 309 308 307 307 306 306 306 306 305 305 304 304 303 303 303 303 303 302 303 303 303 303 303 303 303 303 303 303 303 303 303 303 303 303 303 303 304 304 304 304 303 303 304 304 303 303 303 303 303 303 303 303 303 303 303 303 303 303 303 303 303 303 303
312 311 310 310 308 308 308 307 306 306 306 305 305 304 304 304 303 303 303 302 302 302 302 302 302 302 302 303 302 302 303 303 303 302 302 302 302 302 302 302 302 302 302 303 303 303 303 302 302 302 302 302 302 302 302 302 302 302 302 303 303 303 303 303 303 303 303 303 302
307 307 307 307 306 306 306 305 304 304 304 304 303 303 302 302 302 302 301 301 301 301 302 302 302 302 302 301 301 301 301 301 301 301 301 300 301 301 300 300 301 301 301 301 301 301 301 302 302 301 301 301 301 301 301 302 302 301 301 301 302 302 302 302 302 302 302 301 301
303 304 304 304 304 304 303 303 303 303 302 302 301 301 301 301 301 300 300 300 301 301 301 301 301 301 301 300 300 300 300 300 300 300 299 299 300 299 299 300 299 299 299 299 299 299 300 300 300 300 300 300 300 300 300 301 301 300 300 299 300 300 300 300 300 300 300 300 299
301 301 301 301 301 301 301 301 301 301 300 300 299 299 299 299 299 298 299 299 298 298 299 298 298 298 298 298 298 298 298 298 298 298 298 298 298 298 298 298 298 298 298 298 298 298 299 299 299 298 298 299 298 299 299 299 299 299 299 298 298 298 298 297 298 298 298 298 298
298 298 298 298 298 298 298 298 298 298 297 297 297 297 297 297 297 297 297 296 297 297 296 296 296 296 296 296 296 296 296 296 296 297 296 296 296 296 296 296 296 296 297 297 297 297 297 298 298 297 297 297 297 296 296 296 296 297 297 298 297 297 297 297 297 298 298 298 298
297 297 297 296 296 296 296 295 295 295 295 294 294 295 295 295 295 295 295 295 295 294 294 294 294 294 294 294 294 294 294 295 295 295 294 294 294 294 294 294 293 294 294 295 296 295 296 296 295 294 294 294 293 293 293 294 294 294 295 296 297 297 296 297 297 297 298 298 298
295 295 295 295 295 295 295 294 294 293 293 293 293 293 293 293 293 293 293 293 293 292 292 293 293 293 292 292 293 293 293 293 293 293 293 292 292 292 291 291 291 291 292 292 292 292 293 293 292 291 291 291 291 291 291 292 292 292 292 294 294 295 294 295 295 296 297 297 297
294 294 294 294 294 294 293 293 292 292 292 292 292 292 292 292 292 292 292 292 292 291 291 292 292 291 291 291 292 292 292 292 292 291 291 291 290 290 290 290 290 290 290 289 290 290 290 289 289 289 289 289 289 290 290 290 290 290 290 291 292 292 292 292 293 294 294 295 295
293 293 293 293 293 292 292 292 291 291 291 291 291 291 291 291 292 291 291 291 291 291 291 291 291 291 291 291 291 291 291 291 290 290 290 289 289 289 289 289 289 289 289 288 288 289 289 289 288 288 288 288 288 289 289 289 289 289 289 289 290 290 290 291 291 292 293 293 293
292 292 292 292 292 291 291 290 290 290 290 290 290 290 290 290 291 291 290 290 290 290 290 290 290 290 290 290 290 290 289 289 289 289 288 288 288 288 288 289 288 288 288 288 288 288 288 288 288 288 287 287 288 288 288 288 288 288 288 289 289 289 289 289 290 290 291 291 291
290 290 291 291 290 290 290 289 289 289 289 289 289 289 289 290 290 290 289 289 289 289 289 289 289 289 289 289 289 288 288 288 288 287 287 287 287 287 288 288 288 288 288 288 288 287 287 287 287 287 287 287 287 287 287 287 287 287 287 288 288 288 288 289 289 289 289 290 290
289 289 289 289 289 289 289 289 289 289 288 289 289 289 289 289 289 289 289 288 288 288 288 288 288 288 288 289 288 288 287 287 286 286 286 286 286 286 286 287 287 287 287 287 287 287 287 287 287 287 286 286 286 286 286 286 286 286 287 287 287 287 287 288 288 288 288 288 289
288 288 288 288 288 288 288 288 288 288 288 288 288 288 288 289 289 289 289 288 288 288 288 287 287 287 287 288 288 287 287 286 286 285 285 284 284 284 285 285 285 286 286 287 287 287 287 287 286 286 286 286 286 286 286 286 286 286 286 286 286 287 287 287 287 287 287 287 287
287 288 288 288 287 287 287 287 287 287 287 287 287 288 288 288 288 288 288 288 288 288 287 287 287 287 286 286 286 286 286 285 285 285 284 284 284 283 283 283 284 284 285 285 285 285 285 285 285 285 285 285 285 285 285 285 285 285 285 285 286 286 286 286 286 286 286 286 286
287 287 287 287 287 287 287 287 287 287 287 287 287 288 288 288 287 287 287 287 287 287 286 286 286 286 285 285 285 285 285 284 284 283 283 283 283 283 282 282 283 283 283 284 284 284 284 284 285 285 285 285 285 285 285 285 285 285 285 285 285 285 285 285 285 285 285 285 285
287 287 287 287 287 287 287 287 287 287 287 287 287 287 287 287 287 287 286 286 286 286 285 285 285 284 284 284 284 284 284 284 283 283 283 283 282 282 282 282 282 282 283 283 283 283 284 284 284 285 285 285 285 285 285 285 285 285 285 285 284 284 284 284 284 284 284 284 284
286 287 287 287 287 287 287 287 287 287 287 287 287 287 286 286 286 286 285 285 285 284 284 284 283 283 283 283 283 283 283 284 283 282 282 282 282 282 281 282 282 282 283 283 283 283 284 284 284 285 285 285 285 285 285 284 284 284 284 284 284 284 283 283 283 283 283 283 284
286 287 287 287 287 287 287 287 287 286 286 286 286 286 285 285 285 285 285 284 284 283 283 283 283 283 283 282 282 282 282 283 282 282 282 281 281 281 281 281 281 282 282 283 283 283 284 285 285 285 285 285 285 284 284 284 284 283 283 283 283 283 283 283 283 283 283 283 283
286 286 286 286 286 286 286 286 286 286 285 285 285 285 285 284 285 284 284 284 284 283 283 283 282 282 282 282 282 281 281 281 281 281 281 280 280 280 280 280 281 281 282 282 283 284 284 285 285 284 284 284 284 283 283 283 283 282 282 282 282 281 281 281 281 281 281 281 281
285 286 285 285 285 285 285 285 285 284 284 284 284 284 284 284 284 284 284 283 283 283 282 282 282 281 281 281 280 280 280 280 280 280 279 279 279 279 279 280 280 280 281 284 286 288 287 286 284 284 283 283 283 282 282 282 281 281 280 280 280 280 280 280 280 280 280 279 279
285 285 285 284 284 284 284 284 283 283 283 283 283 283 283 283 282 282 282 282 281 281 281 281 281 281 280 280 279 279 279 279 279 279 279 279 279 279 279 279 279 280 283 288 292 294 293 290 286 284 282 282 282 281 281 281 280 280 280 280 279 279 279 278 279 279 279 278 278
284 284 284 283 283 283 283 283 282 282 282 282 282 281 281 281 281 281 280 280 280 280 280 280 280 281 281 279 279 279 279 279 278 278 278 278 278 278 278 279 280 281 284 291 293 294 294 293 290 286 283 281 281 281 280 280 279 279 279 279 279 278 278 278 277 278 278 278 278
283 282 282 282 282 282 282 282 281 281 281 281 280 280 280 280 280 280 279 279 279 279 279 279 279 280 281 279 278 278 278 278 278 277 277 277 277 277 278 278 279 281 286 292 293 294 294 293 291 288 284 281 280 280 280 279 279 278 278 278 277 277 276 276 276 277 277 277 277
282 282 281 281 281 281 281 280 280 280 280 280 280 280 279 279 279 279 279 278 278 278 278 278 278 279 279 279 278 277 277 277 277 277 277 277 277 277 277 277 278 282 288 293 293 293 293 293 292 290 287 283 279 279 279 278 278 277 277 277 276 276 276 276 276 276 276 276 276
281 281 280 281 280 280 279 279 279 279 279 279 279 279 279 279 279 278 278 278 278 278 278 278 278 278 278 278 277 277 277 277 277 277 277 277 277 277 277 277 277 282 288 294 293 293 293 293 292 291 289 286 281 279 278 278 278 277 277 277 276 275 275 275 275 275 275 275 275
280 280 280 279 279 279 278 278 278 278 278 279 279 279 279 278 278 278 277 277 277 277 277 277 278 278 277 276 277 277 277 276 276 276 276 276 277 277 277 278 278 282 288 293 293 293 293 292 292 291 289 287 283 280 278 278 277 277 276 276 276 275 275 275 274 274 274 274 275
279 279 279 278 278 278 278 277 277 277 277 278 278 278 278 277 277 277 276 276 277 277 278 276 277 276 276 276 276 276 276 276 276 276 276 276 277 277 277 277 277 283 289 293 293 293 292 292 292 291 289 288 284 280 278 277 277 277 276 276 276 275 275 275 275 274 274 274 274
279 279 278 278 278 277 277 277 277 277 277 277 277 277 277 277 276 276 276 276 276 276 276 276 276 276 276 276 276 276 276 276 277 277 277 276 276 276 276 278 278 284 290 293 293 293 293 292 291 290 289 288 285 280 277 277 277 276 276 275 275 275 275 275 275 274 274 274 274
278 278 278 278 277 277 277 277 277 277 277 277 277 277 277 277 276 276 276 277 276 276 276 276 276 275 275 275 275 276 276 277 277 277 277 277 276 276 277 278 279 285 291 292 292 293 293 292 291 290 289 287 284 279 276 276 276 275 275 275 275 275 275 275 274 274 274 274 274
278 278 277 277 277 277 277 276 276 277 277 277 277 277 277 276 276 276 277 277 276 276 276 275 275 275 275 275 275 276 276 278 277 276 276 276 276 276 277 277 279 285 290 291 291 292 292 292 291 289 288 287 282 278 275 275 275 274 274 274 274 275 275 275 275 275 275 275 275
277 277 277 277 277 276 276 276 276 276 276 276 276 276 276 276 276 276 277 278 277 276 275 275 275 275 275 275 275 276 276 276 276 276 276 276 276 276 276 276 278 283 289 290 290 290 291 291 290 289 287 286 281 277 275 274 274 274 274 274 274 275 275 275 275 275 276 276 276
276 276 276 276 276 276 275 276 276 276 276 276 276 276 275 275 275 275 276 278 277 276 275 275 275 275 274 274 275 275 275 274 275 276 276 277 276 275 275 275 276 281 287 289 289 289 290 290 290 289 287 284 281 278 276 274 274 273 273 274 275 275 275 276 276 276 276 276 276
276 276 275 275 275 275 275 275 275 275 275 275 275 275 275 275 275 275 276 277 275 274 274 274 274 274 274 273 273 273 274 274 275 275 276 277 276 275 274 275 275 279 284 288 289 289 289 290 290 289 287 284 282 279 277 275 274 273 274 274 275 276 276 276 276 276 276 276 278
275 275 275 275 275 275 275 275 275 275 274 274 274 274 274 274 274 274 275 276 274 273 273 273 273 273 273 273 273 273 273 274 275 275 275 274 275 275 275 274 275 277 282 287 288 288 289 289 290 289 287 285 282 280 278 275 274 274 275 276 277 278 278 277 277 277 277 277 281
275 275 275 275 275 275 275 274 274 274 274 274 273 273 273 273 273 274 274 274 273 272 272 272 272 273 274 275 274 273 273 273 273 274 274 273 275 277 277 274 274 276 281 286 287 288 288 289 289 289 288 285 282 279 278 276 276 276 277 278 278 279 279 278 277 277 277 277 282
275 275 275 274 274 274 274 274 273 273 273 273 273 273 273 273 274 274 274 273 272 272 272 272 272 273 274 276 274 273 272 272 272 273 273 274 276 278 279 275 274 275 279 284 287 288 288 289 289 289 288 286 281 279 278 277 278 278 279 279 279 279 279 278 277 276 276 276 279
275 275 275 274 274 274 274 273 273 273 272 272 272 273 274 274 273 273 273 272 272 272 272 272 272 272 274 276 274 273 272 272 272 272 273 275 275 277 277 274 274 274 277 281 285 287 288 289 289 289 289 287 281 279 278 278 280 280 279 279 279 278 277 276 276 276 276 275 276
Wind_Speed
3 2 1 1 0 1 2 3 3 3 3 3 3 4 4 5 5 4 4 4 4 4 4 4 3 2 2 4 6 8 8 8 8 9 9 10 9 9 9 8 8 7 7 7 6 6 5 4 4 4 5 5 5 5 4 3 4 4 5 5 4 4 5 6 6 6 7 7 5
3 2 1 2 3 3 3 4 4 4 4 4 4 4 5 5 5 5 5 5 5 5 4 4 3 3 3 5 6 7 8 8 9 9 10 10 10 10 9 8 8 7 7 6 6 5 4 4 5 5 5 5 5 5 4 4 4 5 6 6 4 4 4 5 5 6 6 6 6
3 3 3 4 4 4 4 4 5 5 5 5 5 5 5 5 5 5 5 5 5 5 5 4 4 4 4 5 6 7 7 8 9 9 10 10 10 10 9 8 8 8 7 6 5 5 5 5 6 6 6 5 5 5 4 4 4 5 6 6 4 4 4 4 5 5 5 5 5
4 4 5 6 6 6 6 5 6 6 6 5 5 6 6 6 5 5 5 6 6 6 5 5 4 4 4 6 7 8 8 8 9 10 10 10 10 10 9 8 8 8 7 7 7 6 6 7 6 6 6 6 5 5 4 3 4 4 5 5 4 4 4 4 4 4 4 4 4
7 7 6 6 8 8 7 6 7 7 6 5 5 5 6 6 5 5 5 5 5 6 6 6 5 4 5 6 8 9 9 9 9 9 9 10 10 9 9 8 8 8 8 8 8 8 8 7 6 5 5 5 5 4 4 4 5 5 5 4 4 4 4 4 3 3 3 3 3
8 7 7 7 8 8 8 7 8 8 7 6 6 6 6 6 6 5 5 5 6 7 7 7 6 6 6 7 8 9 9 9 8 8 9 10 9 9 9 9 9 9 8 8 8 8 7 6 5 5 5 5 5 5 5 5 5 5 5 4 4 4 3 4 3 3 3 3 3
9 8 8 8 9 9 9 9 9 8 8 8 9 9 8 7 7 7 7 6 6 6 6 6 6 6 6 7 8 9 9 9 8 8 8 8 8 9 9 9 10 9 9 8 7 7 6 6 5 5 5 5 5 5 5 4 4 4 4 4 3 3 3 3 2 2 2 3 3
10 10 9 9 10 11 11 11 10 9 8 8 9 10 10 10 9 9 8 7 7 7 6 6 7 8 8 8 9 10 10 9 8 7 7 7 8 9 10 10 10 9 8 7 7 7 7 7 6 5 5 4 4 3 4 4 4 4 4 4 3 2 2 2 1 2 2 3 3
10 10 10 9 10 12 13 13 12 11 10 10 11 11 11 10 10 9 8 7 7 7 7 7 8 9 10 10 10 10 9 9 8 7 6 7 9 9 9 9 9 8 7 7 8 8 8 7 6 5 4 4 3 3 4 4 4 4 4 3 2 2 2 2 2 2 2 3 3
10 9 10 10 11 13 14 15 14 13 13 12 12 12 11 11 10 8 7 7 8 8 8 8 9 10 11 11 11 10 9 8 7 6 6 7 8 9 8 7 7 7 7 7 7 7 7 6 6 5 5 4 4 4 4 4 5 5 4 3 3 3 3 3 3 3 3 3 4
10 10 9 10 11 13 14 14 13 13 12 12 12 12 11 10 9 8 7 7 9 9 9 9 10 10 10 10 10 9 9 7 6 6 6 8 8 8 8 7 8 8 7 7 6 5 5 6 6 6 5 4 4 4 5 5 6 6 5 4 4 4 4 4 4 4 4 4 5
11 10 10 10 11 12 13 13 12 12 12 12 11 11 10 9 9 9 9 9 10 10 10 10 10 10 10 9 9 9 8 7 6 6 7 8 8 8 8 8 8 8 7 6 5 5 5 6 6 6 5 4 4 4 5 6 6 6 6 5 5 5 5 5 5 5 4 5 5
11 10 11 11 12 12 12 12 11 11 11 11 10 10 9 9 9 9 9 10 10 9 9 10 10 10 9 9 9 9 8 7 6 6 7 7 8 8 8 8 8 8 7 7 6 6 6 6 6 6 5 5 5 5 5 6 6 6 6 6 6 6 6 6 6 6 6 6 5
12 11 11 11 11 11 11 11 10 10 11 11 10 9 8 8 8 8 9 10 10 10 9 9 9 9 9 10 9 9 8 7 7 7 7 7 7 7 7 7 7 7 7 7 6 6 6 5 5 5 6 6 6 6 6 6 6 6 6 6 7 7 7 7 7 7 6 6 5
13 12 12 11 10 10 10 11 10 10 10 10 9 8 8 7 8 8 9 10 10 9 8 8 8 9 9 10 9 8 8 7 7 7 7 7 7 7 7 7 7 7 7 7 6 6 5 5 5 6 6 7 7 7 7 7 7 7 7 7 7 7 7 7 7 7 6 6 6
13 12 11 10 10 11 11 10 9 9 9 9 8 8 7 7 7 8 9 10 9 9 9 9 8 8 8 9 8 8 8 7 7 7 7 7 6 6 7 7 7 7 7 6 5 5 5 5 5 6 7 8 8 8 7 7 7 7 7 8 7 7 7 7 7 7 6 6 6
13 12 11 11 12 12 12 11 9 9 9 9 9 8 8 7 7 8 9 10 9 9 10 9 8 7 7 8 7 7 7 8 7 7 6 6 6 6 7 7 7 6 5 5 5 4 5 5 5 6 7 8 8 8 8 8 8 8 8 8 7 7 7 7 7 6 6 7 6
12 12 12 12 13 13 13 12 11 10 10 10 9 9 8 8 9 9 10 10 10 11 10 9 8 8 8 8 7 7 7 8 7 7 6 6 6 7 7 7 6 5 4 4 4 4 5 5 6 7 7 7 7 7 7 7 7 7 7 7 7 7 7 7 6 6 6 6 6
12 12 13 13 14 13 13 12 11 11 11 10 10 10 10 10 10 10 10 10 11 11 10 9 8 8 8 8 8 8 8 8 7 7 7 6 7 7 7 6 5 4 3 3 4 4 5 5 6 7 7 7 7 7 7 7 7 7 6 6 7 7 6 6 6 6 6 6 6
13 13 13 13 13 13 12 11 11 11 11 10 11 11 11 11 11 11 11 11 10 10 9 9 9 8 9 9 9 9 8 7 7 7 7 7 7 7 7 6 5 5 4 4 4 4 4 5 5 6 7 7 7 7 7 7 7 7 7 6 6 6 6 6 6 6 6 6 6
13 13 13 12 12 12 11 11 11 11 11 11 11 11 11 11 11 11 11 10 10 9 9 9 9 9 9 10 10 9 8 7 7 7 7 7 8 7 6 6 6 6 5 5 4 3 3 4 5 6 6 7 7 7 7 7 7 7 7 6 6 6 6 6 7 7 7 7 7
13 13 12 12 11 11 11 10 11 11 11 11 11 11 11 11 11 11 10 10 10 10 10 10 10 10 10 10 10 9 8 7 7 7 7 7 7 6 6 5 6 6 6 5 4 3 3 4 5 6 7 7 8 8 8 7 7 7 7 7 6 6 7 7 7 7 7 7 7
13 12 12 11 11 11 11 11 11 11 11 11 11 11 11 11 11 11 10 10 10 10 10 10 10 10 10 10 9 9 9 9 9 8 8 7 6 6 6 5 5 6 6 5 3 3 4 5 6 7 7 7 8 8 8 8 7 7 6 6 6 6 6 6 6 6 6 6 6
13 12 11 10 11 11 11 11 11 11 12 12 11 11 11 11 11 11 11 11 10 10 9 9 9 9 10 10 10 10 10 10 9 8 8 7 6 5 5 5 5 6 5 4 4 5 6 6 6 6 7 7 7 7 7 7 7 6 6 6 6 6 6 6 6 6 6 6 6
13 12 12 11 12 12 11 11 11 11 11 11 11 10 10 10 10 11 11 11 10 10 10 9 9 9 10 10 10 10 9 8 8 7 6 6 5 5 5 5 5 5 5 5 9 10 10 10 8 6 6 6 6 6 7 6 6 6 5 5 6 6 6 6 7 7 7 6 6
12 12 12 12 12 12 12 12 11 10 10 10 10 10 10 10 10 10 11 11 10 10 10 10 10 10 9 9 9 8 7 6 5 5 5 5 6 7 7 6 6 5 5 7 10 11 12 13 13 10 7 5 5 6 6 5 5 5 5 5 5 5 6 6 6 6 6 6 6
12 12 11 11 12 12 11 11 10 10 10 10 10 10 10 9 10 10 11 10 10 9 9 8 8 8 8 7 7 6 5 4 4 5 6 7 8 8 8 7 5 5 5 9 11 11 11 13 15 13 10 6 5 5 5 5 5 5 5 5 4 5 5 5 5 6 6 6 6
11 11 11 11 12 11 11 10 10 10 10 10 10 10 9 9 10 10 10 9 8 7 6 6 5 5 4 5 5 6 6 6 6 7 7 8 8 8 7 6 5 5 6 11 11 11 11 12 14 14 11 8 5 5 5 5 4 4 4 4 4 4 4 4 4 4 5 6 6
11 10 11 12 12 11 11 10 10 10 9 9 9 9 9 9 10 9 9 8 7 6 5 4 4 4 5 6 7 7 8 8 8 8 8 8 7 7 6 6 5 6 8 12 12 11 11 12 13 13 12 9 6 4 4 4 4 3 3 3 3 4 4 4 4 4 4 5 5
10 10 11 11 11 11 11 10 9 8 8 7 8 8 9 10 10 9 9 9 8 7 6 4 5 6 7 8 7 8 8 7 7 7 7 7 7 7 7 7 7 7 8 12 12 11 11 11 12 12 12 10 7 5 4 4 3 3 3 3 3 4 4 4 4 4 4 4 5
10 10 10 11 11 10 9 8 8 7 7 7 8 9 10 10 10 9 8 8 7 6 6 6 8 8 8 7 7 7 6 6 6 6 6 7 7 7 7 8 8 8 9 13 12 12 11 11 11 12 12 11 7 5 3 4 4 3 3 3 3 3 3 3 4 4 4 5 5
9 9 10 10 10 9 8 7 7 8 8 9 9 10 10 10 8 7 6 5 6 6 7 8 9 8 7 6 6 6 6 7 7 7 7 7 7 7 7 8 8 8 10 14 13 12 11 11 11 12 12 11 7 5 4 4 3 3 3 3 3 3 3 3 3 4 4 4 4
9 9 9 10 9 8 8 7 8 8 9 10 10 10 10 9 7 6 6 5 5 6 7 8 8 8 7 6 6 6 6 7 7 8 8 8 7 8 8 8 7 9 12 14 14 13 12 12 12 12 12 10 7 4 3 3 3 2 2 3 3 3 3 3 3 4 4 4 4
9 9 9 9 9 9 8 8 8 9 9 10 10 10 9 8 7 7 6 5 5 6 6 6 6 6 6 6 6 6 7 8 8 8 8 8 8 8 8 8 7 10 14 14 14 14 13 13 13 12 11 9 5 4 3 3 3 3 3 4 4 4 4 4 3 3 4 4 4
9 9 9 9 9 9 9 8 9 9 10 10 10 9 9 7 7 6 6 6 6 6 5 5 5 6 6 6 6 7 8 8 8 8 8 8 8 9 9 8 8 11 15 14 14 13 13 13 13 12 9 6 4 3 2 3 3 3 4 5 5 6 5 5 4 4 4 4 4
9 9 9 9 9 9 9 9 9 10 10 10 10 9 8 7 6 6 5 6 6 6 5 5 5 6 6 6 6 7 7 7 7 7 8 8 8 9 9 9 9 12 15 14 14 13 12 12 12 10 8 4 2 2 2 2 2 3 4 5 5 6 6 5 5 4 4 4 4
8 9 9 9 9 9 9 9 9 10 10 9 9 8 7 6 5 5 5 6 6 5 5 5 5 5 6 6 6 6 6 6 6 7 8 8 8 8 8 9 9 11 13 15 14 13 12 11 10 9 7 3 2 2 2 2 2 3 4 4 5 5 5 5 4 4 4 5 5
8 8 8 8 8 8 8 8 9 9 9 8 7 6 5 5 5 4 5 5 5 5 5 5 5 4 4 4 5 5 6 6 7 7 7 7 7 8 8 9 8 10 12 14 13 13 12 12 10 9 7 4 2 2 2 2 2 3 3 4 4 4 4 4 4 4 5 6 9
7 7 8 8 8 8 8 8 8 8 7 6 6 5 4 4 4 4 4 4 4 4 4 5 4 4 4 5 6 6 6 6 7 7 7 7 7 9 9 8 8 9 11 14 13 13 12 12 12 10 8 5 3 2 2 2 3 3 3 3 3 4 4 4 4 4 5 6 11
7 7 7 7 7 7 7 8 7 6 5 5 5 5 4 4 4 4 3 3 4 4 4 5 5 5 5 7 7 7 7 7 7 7 7 7 8 10 11 8 8 9 11 14 13 13 12 12 13 12 9 5 4 3 3 3 3 3 3 3 3 4 4 4 4 5 5 6 9
7 7 8 7 7 7 7 7 6 5 5 5 5 4 4 4 4 4 4 4 5 5 5 5 6 6 7 8 7 7 8 8 7 7 6 7 8 9 9 7 7 8 9 12 13 13 13 13 14 13 11 7 4 3 3 3 3 3 3 3 4 4 4 4 5 5 5 6 6
Wind_Direction
176 181 189 176 130 78 76 77 72 71 73 75 73 72 71 73 73 72 69 70 73 73 68 62 54 50 56 66 77 81 84 84 82 80 79 77 76 73 70 66 64 63 63 62 62 64 69 78 85 83 78 74 72 68 63 56 59 64 67 66 61 58 55 54 47 41 36 33 27
144 124 81 70 85 94 97 90 81 76 73 72 74 75 76 76 75 75 74 73 75 74 70 61 46 44 56 68 75 80 83 84 82 80 77 74 73 72 71 68 66 65 67 67 69 72 77 79 79 77 74 72 71 68 63 54 61 68 70 67 65 62 59 57 49 45 43 40 35
133 110 95 95 105 106 100 92 86 81 77 73 74 77 80 80 78 77 76 77 79 79 76 68 51 45 53 68 73 77 80 82 82 81 78 75 73 72 72 72 70 69 69 70 71 75 76 74 73 73 72 71 71 69 66 56 62 69 71 66 63 61 59 56 48 45 44 44 42
89 95 100 107 107 103 98 95 92 87 83 79 78 78 80 81 80 79 80 81 80 79 78 75 64 54 54 67 74 76 77 78 81 82 81 80 77 75 76 77 76 74 73 73 73 73 73 71 72 72 72 73 73 71 68 62 64 67 67 62 58 57 57 56 49 46 46 47 47
68 79 91 101 99 95 92 91 90 88 85 83 82 80 80 82 81 81 80 79 77 77 79 80 77 69 62 65 71 73 72 71 75 79 81 82 80 79 79 79 79 77 74 71 70 69 69 71 74 76 75 74 70 65 60 57 62 64 63 58 54 54 54 55 52 50 50 52 53
64 69 76 87 91 90 88 85 84 83 82 80 80 79 79 80 79 78 77 79 77 76 76 78 77 73 67 64 66 67 66 63 65 72 78 83 83 83 81 79 77 75 71 67 66 66 69 74 77 76 71 68 62 54 50 52 62 66 67 64 59 56 54 53 52 52 54 57 61
61 63 67 75 84 87 87 83 81 79 78 77 76 76 77 78 77 76 75 75 73 70 67 66 65 65 65 64 64 63 61 58 58 62 71 81 83 82 80 77 74 71 70 69 69 68 69 71 71 67 62 59 57 49 44 50 62 70 72 68 62 59 57 54 52 52 54 57 60
62 62 64 68 76 81 82 80 78 76 76 74 73 73 73 74 74 74 72 70 67 65 63 61 60 62 64 64 63 61 59 56 53 55 62 75 78 77 75 74 72 71 71 72 72 70 67 66 66 65 62 61 58 51 46 51 62 69 72 70 65 61 60 58 50 46 47 47 48
64 63 63 65 71 76 77 75 74 73 73 72 71 69 68 68 69 69 69 69 67 66 65 64 63 63 63 62 61 59 56 52 49 49 56 66 71 72 71 72 72 72 71 69 68 68 68 69 68 66 64 62 58 50 46 50 60 65 68 68 64 58 53 50 41 36 33 33 32
67 66 67 68 72 75 77 75 73 72 71 70 68 67 66 66 65 65 66 69 70 68 66 64 64 63 62 60 59 57 55 51 47 47 52 60 64 66 68 69 69 68 65 61 63 66 69 74 71 66 60 58 56 51 47 51 58 60 59 56 54 50 45 37 31 27 24 24 22
68 67 68 71 73 76 78 77 74 72 69 68 67 66 66 65 65 66 69 72 71 68 65 63 63 63 62 61 59 57 55 53 50 49 52 57 60 63 64 64 63 62 60 56 58 63 68 71 70 67 61 55 54 52 50 51 56 56 53 48 46 44 40 32 27 24 23 22 20
70 68 68 70 72 74 76 77 75 72 70 68 67 66 66 65 65 68 71 72 72 69 65 61 62 62 63 62 60 58 56 52 50 51 54 56 58 59 60 60 60 59 57 53 54 59 64 68 71 70 66 58 54 51 50 50 52 52 49 43 41 38 34 26 22 20 20 20 19
71 69 68 68 69 72 74 76 75 73 70 68 67 67 66 65 65 68 71 72 71 69 65 62 62 62 63 62 61 59 55 50 47 48 51 53 55 56 57 58 58 58 57 53 53 58 63 67 72 75 73 64 57 51 49 50 50 49 45 40 37 33 28 21 17 14 14 15 14
69 67 66 66 69 71 74 75 74 73 71 69 68 67 67 66 65 67 69 70 71 70 68 65 63 63 63 63 64 62 59 53 49 49 50 50 51 54 56 58 58 59 59 57 57 60 65 70 73 75 73 67 59 53 49 49 49 47 44 41 37 32 27 20 15 12 11 10 7
67 66 66 68 71 74 75 75 75 74 73 72 70 69 69 68 68 69 70 71 71 71 70 68 66 65 65 65 66 65 62 56 52 51 51 50 51 53 57 58 58 59 60 61 61 64 69 73 73 72 70 67 61 55 50 48 47 45 43 41 38 34 29 23 18 14 12 10 7
68 69 70 73 75 76 76 75 76 76 76 77 76 74 73 72 71 71 72 72 72 71 69 67 67 66 65 64 64 64 62 59 55 53 51 50 51 52 54 56 55 56 59 62 64 67 69 71 71 70 68 66 61 56 52 49 47 45 43 41 38 35 31 25 21 17 14 12 10
73 74 75 76 76 75 75 76 78 80 82 83 82 81 79 77 74 73 72 73 73 71 68 65 65 66 65 62 60 61 61 58 54 51 49 47 47 49 51 52 52 53 56 62 67 68 68 67 67 67 67 65 63 59 55 52 49 46 43 41 39 36 31 26 21 17 14 12 9
77 77 76 75 74 74 75 77 80 82 83 84 83 82 81 79 78 75 73 72 73 73 71 67 65 65 65 64 61 60 60 58 53 49 45 42 43 45 45 45 44 45 50 59 64 66 66 64 64 65 65 65 63 61 58 55 52 48 45 42 39 35 31 26 21 17 14 9 5
78 76 75 74 74 74 76 77 79 80 81 80 79 78 78 77 77 76 73 70 70 72 73 71 68 66 66 65 63 61 60 59 53 48 44 40 40 39 37 34 30 30 34 43 51 56 60 61 63 64 65 65 63 62 59 57 54 50 46 43 39 35 30 25 21 17 12 7 2
76 75 73 73 74 75 76 76 76 77 77 77 76 76 75 74 74 74 73 71 70 71 72 71 69 66 64 63 62 60 58 57 53 48 43 40 38 34 30 25 20 18 20 26 35 44 52 58 62 65 66 66 64 61 59 56 52 48 44 41 37 33 28 23 19 16 12 7 3
74 73 72 72 73 74 75 75 74 74 74 74 74 74 73 72 71 72 72 72 71 71 69 67 65 63 61 60 60 59 56 54 51 47 43 39 35 29 24 20 16 14 12 14 22 35 48 57 61 64 66 66 64 61 57 54 49 45 41 37 33 29 26 22 18 15 12 8 3
72 71 71 71 71 72 72 73 73 73 73 72 71 71 70 70 70 70 70 71 70 69 67 64 62 60 59 58 58 57 55 52 48 45 41 37 31 24 18 16 15 11 7 4 12 31 51 57 59 62 65 66 63 59 56 53 49 44 39 34 30 27 23 20 17 14 10 6 1
73 71 70 70 69 69 69 70 70 71 71 70 69 68 68 69 69 68 67 66 65 65 64 64 61 59 57 56 55 54 52 49 44 41 37 34 28 20 15 13 13 8 1 355 12 46 64 64 61 62 64 67 64 61 57 53 49 44 38 32 28 24 19 15 12 9 6 2 357
73 72 70 69 68 67 66 65 66 66 67 67 66 66 67 68 68 67 65 62 61 60 59 59 58 56 54 51 50 50 49 47 43 38 34 31 27 20 15 13 11 3 355 349 26 57 76 82 73 67 65 67 65 62 58 54 50 45 39 32 26 20 14 10 7 5 2 358 354
72 71 71 70 69 67 65 63 63 63 64 65 65 64 64 63 64 63 62 59 55 53 52 52 51 51 50 48 47 48 48 48 46 41 36 30 26 22 19 16 9 357 351 4 36 54 73 90 87 80 71 67 66 64 60 55 51 46 40 34 27 20 13 7 4 0 357 354 351
69 69 69 69 69 67 66 64 63 62 61 61 61 59 58 57 58 57 56 53 49 47 45 46 47 49 50 50 49 50 51 52 50 46 42 35 29 25 22 17 4 349 352 21 36 46 62 83 88 86 80 71 68 65 61 54 49 45 41 35 29 23 16 9 1 355 351 348 346
67 67 67 68 67 65 64 62 60 58 56 56 55 55 53 52 53 54 53 52 49 48 47 47 51 55 58 60 57 55 53 49 45 42 40 37 33 27 21 12 356 344 359 31 37 42 55 74 84 85 83 76 73 70 67 59 50 44 40 34 29 24 18 9 357 350 345 343 341
66 67 67 67 66 63 61 58 56 54 53 53 54 55 55 55 56 57 56 56 55 55 55 55 59 64 66 64 57 50 44 38 35 33 33 34 32 27 18 5 347 347 9 37 39 42 52 69 80 83 83 81 78 75 71 66 55 45 37 30 25 20 14 4 354 347 343 339 339
65 66 66 65 64 61 57 54 53 52 52 53 55 58 60 60 60 60 59 58 57 57 57 57 60 59 55 50 44 40 37 34 32 31 30 30 27 22 12 0 344 349 10 35 40 43 51 65 75 78 79 79 79 76 70 65 56 45 34 25 20 14 7 357 348 343 339 337 337
63 63 63 62 61 58 55 52 51 51 52 54 56 58 59 59 57 56 55 54 53 53 52 51 51 50 47 43 41 38 36 32 30 30 31 30 25 18 9 0 347 350 9 34 39 44 52 63 70 73 73 74 75 73 67 61 52 41 29 18 12 6 359 349 343 339 337 337 338
59 60 61 61 59 57 54 52 51 52 52 54 54 55 55 54 53 52 51 51 51 49 48 49 50 48 45 42 42 40 38 33 31 31 31 30 26 19 10 1 348 351 12 34 39 44 52 63 69 71 70 68 68 65 58 52 46 38 25 12 2 355 348 341 338 335 334 335 338
57 59 61 62 61 58 55 52 52 52 53 53 54 54 54 54 53 52 51 52 51 48 47 48 48 46 43 40 40 40 38 36 33 32 31 30 26 21 14 7 351 358 18 36 38 43 51 64 70 70 68 64 63 59 52 47 39 29 16 2 351 342 336 334 333 331 330 330 329
56 59 61 62 61 57 54 51 52 53 54 54 54 54 54 54 53 52 51 52 52 50 50 50 49 47 43 40 39 39 38 37 34 32 31 30 29 26 21 12 356 5 21 37 37 41 50 65 71 71 67 62 60 53 43 38 29 17 3 349 337 331 330 331 328 325 322 319 316
54 57 59 59 58 55 52 50 52 53 55 55 54 53 52 52 51 51 50 50 52 52 52 52 51 49 46 43 43 41 39 37 33 31 29 29 30 29 25 16 2 9 20 36 36 40 48 63 72 71 67 60 54 44 33 27 17 4 351 340 332 331 331 332 327 321 315 311 308
52 55 56 56 54 53 51 50 51 53 55 55 53 51 49 49 48 47 48 50 51 51 50 48 49 48 45 43 43 42 40 36 33 30 29 30 31 30 25 16 4 7 17 33 34 37 43 58 70 73 69 58 46 32 26 24 9 355 344 337 333 332 332 333 328 321 314 308 304
47 52 54 54 52 51 50 51 52 54 54 54 51 49 46 44 42 41 43 47 49 49 48 45 46 45 45 42 41 40 39 37 33 31 30 31 32 30 25 15 6 6 12 25 30 32 35 48 67 74 73 57 35 17 16 18 4 350 342 338 334 333 332 332 329 323 317 311 303
43 48 52 54 52 51 51 52 54 55 54 53 50 49 46 43 38 35 36 42 47 48 47 45 45 45 46 46 43 39 36 36 36 33 30 28 31 30 25 16 7 3 6 15 24 26 28 33 54 67 73 54 23 3 3 7 358 349 343 339 334 331 330 329 327 324 320 316 318
42 48 53 57 56 55 55 56 57 58 57 55 52 50 48 46 40 36 36 41 49 50 48 45 44 44 46 49 46 40 35 35 36 34 30 25 27 29 27 18 7 1 1 8 17 22 23 22 35 49 60 50 25 8 3 2 356 351 346 343 338 334 330 328 327 325 323 321 332
47 51 56 61 62 61 61 60 60 60 59 58 55 51 49 48 44 40 39 42 51 55 53 49 43 40 42 46 45 39 33 31 32 32 29 23 23 27 27 20 6 358 357 1 9 16 19 17 22 32 43 50 36 22 14 7 0 357 354 351 347 341 335 330 328 327 326 324 335
54 56 59 62 63 64 64 63 61 59 58 58 55 52 51 52 50 47 46 46 50 53 54 51 42 37 38 43 43 37 29 24 23 24 25 21 23 24 24 18 4 356 353 355 2 10 16 15 15 21 30 51 44 33 21 12 8 6 4 1 355 346 338 331 330 330 329 327 334
57 59 60 60 61 61 62 62 59 56 54 54 52 51 50 52 49 47 46 47 46 47 48 47 39 36 36 38 39 35 28 21 16 15 16 18 20 21 19 12 1 353 350 350 356 5 13 14 12 15 22 42 45 38 24 17 14 11 7 3 355 347 339 334 333 332 331 330 331